[[{"header":{"parameterUnit":"m.s-1","parameterCategory":2,"la1":30.2992,"la2":30.254,"lo1":-89.0895,"lo2":-89.0443,"dy":0.0025,"dx":0.0025,"nx":19,"ny":19,"refTime":"2026-05-20T09:00:00:Z","depth":"0","parameterNumber":2,"parameterNumberName":"U-component_of_CURRENTS"},"data":[0,0,0,-0.4518,-0.4521,-0.4618,-0.4618,-0.4564,-0.4563,0,0,0,0,0,0,0,0,0,0,0,-0.4486,-0.4488,-0.4518,-0.4522,-0.4618,-0.4618,-0.4564,-0.4563,0,0,0,0,0,0,0,0,0,0,0,-0.4486,-0.4488,-0.449,-0.4522,-0.4618,-0.4618,-0.4564,-0.4526,0,0,0,0,0,0,0,0,0,0,-0.445,-0.4388,-0.4487,-0.449,-0.4523,-0.4618,-0.4618,-0.4525,-0.4528,-0.4481,0,-0.4536,0,-0.4562,-0.4559,-0.4559,0,0,0,-0.4482,-0.4385,-0.4493,-0.449,-0.4524,-0.4618,-0.4563,-0.4528,-0.4531,-0.4484,-0.4536,-0.4535,-0.4561,-0.4559,-0.4558,-0.4503,-0.4503,0,0,-0.4477,-0.441,-0.4493,-0.4497,-0.4598,-0.4561,-0.4567,-0.4531,-0.4501,-0.4536,-0.4535,-0.4561,-0.4558,-0.4558,-0.4503,-0.4503,0,0,0,-0.4488,-0.4405,-0.4515,-0.4498,-0.4538,-0.4564,-0.4571,-0.4501,-0.4564,-0.4535,-0.456,-0.4558,-0.4557,-0.4504,-0.4503,-0.4341,0,0,0,-0.4483,-0.4418,-0.4514,-0.4461,-0.4541,-0.4527,-0.4541,-0.4566,-0.4564,-0.456,-0.4558,-0.4556,-0.4504,-0.4503,-0.4346,-0.4242,0,0,0,-0.4473,-0.4412,-0.446,-0.446,-0.453,-0.453,-0.4585,-0.4566,-0.4579,-0.4559,-0.4556,-0.4504,-0.4504,-0.435,-0.4251,-0.4118,0,0,0,-0.4351,-0.4439,-0.4457,-0.4498,-0.453,-0.4561,-0.4586,-0.4594,-0.4581,-0.4558,-0.4504,-0.4503,-0.4352,-0.4257,-0.4125,-0.3934,-0.3888,0,0,-0.441,-0.4441,-0.4461,-0.4484,-0.4451,-0.4542,-0.4468,-0.4494,-0.4552,-0.4496,-0.4496,-0.4344,-0.4252,-0.412,-0.3915,-0.3868,0,0,0,-0.4442,-0.442,-0.442,-0.4388,-0.4443,-0.4389,-0.4442,-0.4431,-0.4411,-0.4555,-0.4383,-0.433,-0.4251,-0.4153,-0.4116,-0.4037,-0.4502,-0.4502,-0.4502,-0.4315,-0.433,-0.4268,-0.4265,-0.4273,-0.4277,-0.4229,-0.423,-0.4324,-0.4303,-0.4227,-0.4055,-0.3953,-0.3922,-0.3845,-0.4281,-0.4281,-0.428,-0.428,-0.4185,-0.4109,-0.4087,-0.405,-0.4042,-0.4009,-0.3995,-0.4036,-0.3934,-0.4076,-0.4008,-0.4025,-0.3871,-0.3804,-0.427,-0.4272,-0.4273,-0.4274,-0.4275,-0.3963,-0.3953,-0.3931,-0.3812,-0.3767,-0.3821,-0.3708,-0.3747,-0.3779,-0.3708,-0.3648,-0.3649,-0.3559,-0.3714,-0.3713,-0.3712,-0.3711,-0.3711,-0.371,-0.377,-0.3758,-0.3589,-0.3547,-0.3485,-0.3465,-0.3506,-0.3469,-0.3424,-0.343,-0.343,-0.3478,-0.3882,-0.3868,-0.3694,-0.3697,-0.3699,-0.37,-0.3701,-0.3506,-0.3479,-0.3202,-0.3095,-0.2988,-0.2921,-0.3075,-0.303,-0.2993,-0.2914,-0.2963,-0.3264,-0.3282,-0.3313,-0.3288,-0.2973,-0.2973,-0.2973,-0.2973,-0.3271,-0.326,-0.2814,-0.2597,-0.2501,-0.2637,-0.2474,-0.2516,-0.2552,-0.25,-0.2621,-0.2714,-0.2747,-0.2745,-0.2789,-0.2758,-0.2316,-0.2315,-0.2315,-0.3008,-0.2908,-0.2524,-0.2353,-0.2287,-0.2347,-0.2183,-0.2081,-0.2137,-0.2291,-0.2538,-0.2565,-0.2721,-0.2779,-0.2808,-0.2875,-0.2841,0,0]},{"header":{"parameterUnit":"m.s-1","parameterCategory":2,"la1":30.2992,"la2":30.254,"lo1":-89.0895,"lo2":-89.0443,"dy":0.0025,"dx":0.0025,"nx":19,"ny":19,"refTime":"2026-05-20T09:00:00:Z","depth":"0","parameterNumber":3,"parameterNumberName":"V-component_of_CURRENTS"},"data":[0,0,0,0.0408,0.0412,0.0643,0.0644,0.0935,0.0937,0,0,0,0,0,0,0,0,0,0,0,0.0309,0.0309,0.0408,0.0413,0.0643,0.0644,0.0934,0.0937,0,0,0,0,0,0,0,0,0,0,0,0.0308,0.0309,0.031,0.0413,0.0643,0.0645,0.0934,0.0767,0,0,0,0,0,0,0,0,0,0,0.0546,0.0415,0.0309,0.031,0.0414,0.0642,0.0645,0.0759,0.0777,0.0821,0,0.0827,0,0.0887,0.0954,0.0955,0,0,0,0.0439,0.04,0.0491,0.031,0.0416,0.0642,0.0546,0.077,0.079,0.0844,0.0832,0.0844,0.0892,0.0956,0.0957,0.0964,0.0963,0,0,0.0426,0.0335,0.0476,0.0502,0.0439,0.0539,0.0553,0.0782,0.077,0.0833,0.0851,0.0896,0.0957,0.0959,0.0966,0.0964,0,0,0,0.0372,0.0325,0.0411,0.0489,0.0531,0.0545,0.0562,0.076,0.0795,0.0855,0.09,0.0959,0.0962,0.0968,0.0965,0.069,0,0,0,0.0365,0.0294,0.0404,0.0351,0.0525,0.0642,0.0532,0.0779,0.0808,0.0898,0.0959,0.0964,0.097,0.0967,0.0701,0.0613,0,0,0,0.0305,0.0287,0.0309,0.0346,0.044,0.064,0.0689,0.0787,0.0834,0.0955,0.0965,0.0971,0.0967,0.0712,0.0631,0.0646,0,0,0,0.0215,0.014,0.0305,0.0225,0.0438,0.0468,0.0688,0.0739,0.0815,0.096,0.097,0.0966,0.0715,0.0641,0.0654,0.0838,0.0815,0,0,0.0059,0.0119,0.007,0.0222,0.0172,0.0441,0.0389,0.06,0.0768,0.0905,0.0906,0.0697,0.0632,0.0648,0.0589,0.0574,0,0,0,-0.0021,-0.0054,-0.0049,-0.0024,0.0077,0.0168,0.0385,0.0469,0.0589,0.0794,0.0687,0.0655,0.0675,0.0802,0.0788,0.1075,0.0946,0.0946,0.0946,-0.0345,-0.0262,-0.0347,-0.0239,-0.0204,-0.0018,0.0044,0.0212,0.0392,0.0378,0.042,0.0231,0.0354,0.0348,0.0636,0.0394,0.0393,0.0392,0.0391,-0.0591,-0.0625,-0.053,-0.0569,-0.0437,-0.0418,-0.0234,-0.0111,0.0009,0.0146,0.018,0.0489,0.0318,0.0632,0.0373,0.0377,0.0379,0.0381,0.0382,-0.0785,-0.0783,-0.0774,-0.078,-0.0769,-0.0617,-0.0554,-0.0412,-0.0217,-0.0216,0.0109,0.0117,0.042,-0.0144,-0.0144,-0.0144,-0.0145,-0.0145,-0.0145,-0.0958,-0.0947,-0.0998,-0.0987,-0.0972,-0.0915,-0.0718,-0.0588,-0.0321,-0.0141,-0.0136,0.0387,0.0072,0.0123,-0.0152,-0.0151,-0.015,-0.0149,-0.0149,-0.1139,-0.1113,-0.1189,-0.1195,-0.1159,-0.1002,-0.0856,-0.047,-0.0345,-0.0171,0.0344,-0.0046,0.0106,0.0122,0.0178,-0.0066,-0.0066,-0.0066,-0.0066,-0.1242,-0.1246,-0.131,-0.133,-0.1304,-0.105,-0.0582,-0.0183,0.0255,0.0507,0.0531,0.0682,0.0666,0.0861,0.0861,0.0937,0.089,0.0891,0.0893,-0.1324,-0.1326,-0.1383,-0.1393,-0.1349,-0.0994,-0.0321,0.0395,0.0847,0.0954,0.088,0.0839,0.1081,0.1034,0.1363,0.1339,0.1473,0,0]}],[{"header":{"parameterUnit":"m.s-1","parameterCategory":2,"la1":30.2992,"la2":30.254,"lo1":-89.0895,"lo2":-89.0443,"dy":0.0025,"dx":0.0025,"nx":19,"ny":19,"refTime":"2026-05-20T09:00:00:Z","depth":"2","parameterNumber":2,"parameterNumberName":"U-component_of_CURRENTS"},"data":[0,0,0,-0.2533,-0.2536,-0.2674,-0.2674,-0.2874,-0.2875,0,0,0,0,0,0,0,0,0,0,0,-0.2498,-0.25,-0.2533,-0.2537,-0.2674,-0.2674,-0.2873,-0.2875,0,0,0,0,0,0,0,0,0,0,0,-0.2498,-0.25,-0.2502,-0.2537,-0.2674,-0.2674,-0.2873,-0.2761,0,0,0,0,0,0,0,0,0,0,-0.2624,-0.2574,-0.2499,-0.2502,-0.2538,-0.2674,-0.2674,-0.2755,-0.2768,-0.2821,0,-0.2864,0,-0.2876,-0.289,-0.2891,0,0,0,-0.2528,-0.2563,-0.2619,-0.2502,-0.254,-0.2673,-0.2609,-0.2762,-0.2777,-0.2838,-0.2867,-0.2874,-0.2879,-0.2892,-0.2893,-0.3067,-0.3067,0,0,-0.252,-0.2502,-0.261,-0.2629,-0.2606,-0.2605,-0.2614,-0.2771,-0.2788,-0.2867,-0.2878,-0.2882,-0.2893,-0.2895,-0.3066,-0.3067,0,0,0,-0.2504,-0.2497,-0.2548,-0.2621,-0.2646,-0.2609,-0.2619,-0.2781,-0.2805,-0.288,-0.2885,-0.2894,-0.2897,-0.3066,-0.3066,-0.3105,0,0,0,-0.2499,-0.2489,-0.2545,-0.2532,-0.2643,-0.2707,-0.2626,-0.2794,-0.2811,-0.2884,-0.2894,-0.2899,-0.3066,-0.3066,-0.3103,-0.3062,0,0,0,-0.2487,-0.2486,-0.2515,-0.2532,-0.2596,-0.2705,-0.2736,-0.2797,-0.2815,-0.2891,-0.29,-0.3066,-0.3066,-0.3102,-0.3061,-0.3043,0,0,0,-0.2443,-0.2502,-0.2515,-0.2599,-0.2595,-0.2751,-0.2735,-0.2891,-0.2978,-0.2895,-0.3066,-0.3066,-0.3101,-0.3061,-0.3043,-0.2816,-0.2798,0,0,-0.2489,-0.2507,-0.256,-0.2577,-0.2764,-0.2729,-0.285,-0.2973,-0.2982,-0.3014,-0.3018,-0.3104,-0.3061,-0.3043,-0.2852,-0.2832,0,0,0,-0.2557,-0.2609,-0.2684,-0.2775,-0.2877,-0.2907,-0.2992,-0.3015,-0.3067,-0.3032,-0.3106,-0.3076,-0.3064,-0.2928,-0.2913,-0.3069,-0.3069,-0.3069,-0.3069,-0.254,-0.2629,-0.2748,-0.2863,-0.2947,-0.3056,-0.3077,-0.3086,-0.3144,-0.316,-0.3112,-0.3121,-0.2979,-0.2964,-0.3147,-0.3147,-0.3147,-0.3147,-0.3147,-0.258,-0.2615,-0.2742,-0.2883,-0.2947,-0.3017,-0.3082,-0.3119,-0.3117,-0.3136,-0.3125,-0.2979,-0.2949,-0.315,-0.315,-0.3149,-0.3149,-0.3149,-0.3149,-0.2527,-0.2548,-0.2653,-0.2784,-0.2883,-0.2974,-0.3002,-0.3079,-0.3101,-0.3105,-0.295,-0.2946,-0.3106,-0.3125,-0.3124,-0.3124,-0.3124,-0.3124,-0.3124,-0.2361,-0.2483,-0.2536,-0.2703,-0.2753,-0.2838,-0.2959,-0.296,-0.2937,-0.292,-0.2919,-0.3111,-0.3112,-0.3103,-0.312,-0.3121,-0.3121,-0.3122,-0.3122,-0.2202,-0.2291,-0.2363,-0.2425,-0.2558,-0.2551,-0.2734,-0.2683,-0.2708,-0.2629,-0.2803,-0.2812,-0.2758,-0.2767,-0.2748,-0.2672,-0.2672,-0.2672,-0.2672,-0.2032,-0.2106,-0.2143,-0.22,-0.2276,-0.2387,-0.224,-0.2239,-0.233,-0.2334,-0.2349,-0.232,-0.2344,-0.2267,-0.2288,-0.2259,-0.2057,-0.2056,-0.2055,-0.1838,-0.1929,-0.186,-0.2027,-0.2124,-0.2143,-0.1934,-0.1753,-0.1792,-0.2038,-0.2312,-0.2617,-0.2615,-0.2638,-0.2553,-0.2574,-0.2542,0,0]},{"header":{"parameterUnit":"m.s-1","parameterCategory":2,"la1":30.2992,"la2":30.254,"lo1":-89.0895,"lo2":-89.0443,"dy":0.0025,"dx":0.0025,"nx":19,"ny":19,"refTime":"2026-05-20T09:00:00:Z","depth":"2","parameterNumber":3,"parameterNumberName":"V-component_of_CURRENTS"},"data":[0,0,0,-0.0759,-0.0756,-0.0597,-0.0597,-0.0308,-0.0305,0,0,0,0,0,0,0,0,0,0,0,-0.0829,-0.0828,-0.0759,-0.0755,-0.0597,-0.0597,-0.0309,-0.0305,0,0,0,0,0,0,0,0,0,0,0,-0.083,-0.0829,-0.0828,-0.0755,-0.0598,-0.0597,-0.0309,-0.045,0,0,0,0,0,0,0,0,0,0,-0.0615,-0.07,-0.0829,-0.0828,-0.0754,-0.0598,-0.0597,-0.0458,-0.0441,-0.0355,0,-0.034,0,-0.0304,-0.0284,-0.0283,0,0,0,-0.0756,-0.0714,-0.0659,-0.0828,-0.0753,-0.0598,-0.0669,-0.0449,-0.043,-0.0332,-0.0335,-0.0325,-0.0299,-0.0282,-0.028,0.0022,0.0023,0,0,-0.0765,-0.0804,-0.0673,-0.0648,-0.0719,-0.0674,-0.0664,-0.0439,-0.0427,-0.0334,-0.0318,-0.0294,-0.028,-0.0277,0.0021,0.0022,0,0,0,-0.079,-0.081,-0.0763,-0.066,-0.0631,-0.0669,-0.0658,-0.0438,-0.0419,-0.0314,-0.0291,-0.0278,-0.0274,0.002,0.0021,-0.0096,0,0,0,-0.0795,-0.0824,-0.0767,-0.0789,-0.0636,-0.0545,-0.0662,-0.0436,-0.0409,-0.0293,-0.0278,-0.0271,0.0019,0.0021,-0.0095,-0.0163,0,0,0,-0.0835,-0.0828,-0.0811,-0.0792,-0.0719,-0.0548,-0.0517,-0.043,-0.0393,-0.0282,-0.027,0.0018,0.002,-0.0095,-0.016,-0.012,0,0,0,-0.0878,-0.0871,-0.0812,-0.0778,-0.0721,-0.0584,-0.0519,-0.0385,-0.0288,-0.0276,0.0019,0.0021,-0.0094,-0.0158,-0.0119,-0.0032,-0.0029,0,0,-0.0897,-0.0874,-0.0849,-0.0792,-0.068,-0.0606,-0.0498,-0.0339,-0.0227,-0.0051,-0.0044,-0.0096,-0.016,-0.012,0.0094,0.0092,0,0,0,-0.0871,-0.0852,-0.08,-0.0726,-0.0612,-0.0536,-0.0384,-0.0302,-0.0147,-0.0159,-0.0018,-0.0053,-0.0025,0.0033,0.0033,0.0031,0.0031,0.0031,0.0031,-0.0956,-0.0876,-0.0822,-0.0713,-0.0625,-0.0457,-0.0382,-0.0242,-0.0131,-0.0067,-0.0091,-0.0065,-0.0002,-0.0002,-0.0013,-0.0013,-0.0014,-0.0014,-0.0014,-0.0975,-0.0956,-0.0853,-0.0779,-0.0676,-0.0584,-0.039,-0.0308,-0.016,-0.0101,-0.0067,-0.0023,-0.0009,-0.0022,-0.0021,-0.0019,-0.0019,-0.0018,-0.0018,-0.1038,-0.1028,-0.0971,-0.089,-0.0819,-0.0679,-0.0574,-0.0435,-0.0263,-0.0237,-0.0081,-0.0077,-0.0161,-0.0191,-0.0191,-0.0191,-0.0191,-0.0191,-0.0191,-0.115,-0.1088,-0.1087,-0.0999,-0.0979,-0.0893,-0.0683,-0.0555,-0.0325,-0.0184,-0.0181,-0.0123,-0.0117,-0.0165,-0.0193,-0.0193,-0.0193,-0.0192,-0.0192,-0.1216,-0.121,-0.1209,-0.1199,-0.1134,-0.1063,-0.0843,-0.0506,-0.0352,-0.0212,-0.0111,-0.0112,-0.0054,-0.005,-0.0091,-0.0099,-0.0099,-0.0099,-0.0099,-0.1297,-0.1282,-0.1307,-0.1313,-0.1281,-0.114,-0.0904,-0.052,-0.0178,-0.0033,-0.0037,0.0001,-0.0003,0.0061,0.0062,0.0024,0.0046,0.0046,0.0046,-0.1338,-0.1345,-0.1383,-0.1375,-0.1344,-0.1201,-0.0975,-0.0498,-0.0025,0.0047,-0.0064,-0.0079,-0.0029,-0.0033,0.0064,0.0066,0.0005,0,0]}],[{"header":{"parameterUnit":"m.s-1","parameterCategory":2,"la1":30.2992,"la2":30.254,"lo1":-89.0895,"lo2":-89.0443,"dy":0.0025,"dx":0.0025,"nx":19,"ny":19,"refTime":"2026-05-20T09:00:00:Z","depth":"4","parameterNumber":2,"parameterNumberName":"U-component_of_CURRENTS"},"data":[0,0,0,-0.1487,-0.1493,-0.171,-0.1711,-0.1828,-0.1829,0,0,0,0,0,0,0,0,0,0,0,-0.1402,-0.1404,-0.1487,-0.1493,-0.171,-0.1711,-0.1828,-0.1829,0,0,0,0,0,0,0,0,0,0,0,-0.1401,-0.1404,-0.1406,-0.1494,-0.171,-0.1711,-0.1827,-0.1697,0,0,0,0,0,0,0,0,0,0,-0.1503,-0.144,-0.1403,-0.1406,-0.1496,-0.171,-0.1711,-0.1692,-0.1705,-0.1692,0,-0.1749,0,-0.1806,-0.1835,-0.1836,0,0,0,-0.1467,-0.1429,-0.1514,-0.1407,-0.1498,-0.171,-0.1605,-0.17,-0.1715,-0.1708,-0.1752,-0.1758,-0.1808,-0.1836,-0.1836,-0.1926,-0.1926,0,0,-0.1455,-0.1409,-0.1505,-0.1524,-0.1583,-0.1598,-0.1612,-0.1711,-0.1718,-0.1752,-0.1761,-0.181,-0.1837,-0.1837,-0.1926,-0.1926,0,0,0,-0.1438,-0.14,-0.1485,-0.1517,-0.1579,-0.1605,-0.1621,-0.1713,-0.175,-0.1763,-0.1811,-0.1837,-0.1838,-0.1925,-0.1926,-0.2048,0,0,0,-0.1429,-0.1394,-0.148,-0.145,-0.1579,-0.1668,-0.162,-0.1743,-0.1757,-0.1811,-0.1837,-0.1839,-0.1925,-0.1926,-0.2045,-0.2106,0,0,0,-0.1387,-0.1388,-0.1429,-0.1448,-0.1559,-0.1668,-0.171,-0.1748,-0.1787,-0.1836,-0.184,-0.1925,-0.1925,-0.2041,-0.2099,-0.2157,0,0,0,-0.131,-0.1366,-0.1428,-0.1514,-0.1558,-0.17,-0.171,-0.1809,-0.1856,-0.1838,-0.1925,-0.1926,-0.204,-0.2095,-0.2152,-0.18,0,0,0,-0.1332,-0.1367,-0.1423,-0.1485,-0.1635,-0.1667,-0.1795,-0.1864,-0.1851,-0.1876,-0.188,-0.2046,-0.2099,-0.2156,-0.1835,0,0,0,0,-0.1398,-0.1443,-0.1497,-0.1611,-0.1719,-0.1838,-0.1895,-0.1925,-0.1989,-0.189,-0.2022,-0.2051,-0.2084,-0.1864,-0.1928,-0.1928,-0.1928,-0.1928,-0.1928,-0.1354,-0.1457,-0.1576,-0.1718,-0.1809,-0.195,-0.2037,-0.208,-0.2045,-0.2089,-0.2135,-0.2238,-0.2007,-0.2108,-0.2108,-0.2109,-0.2109,-0.211,-0.211,-0.1438,-0.1509,-0.1662,-0.1815,-0.1954,-0.2067,-0.2196,-0.2218,-0.2301,-0.2234,-0.226,-0.1986,-0.2122,-0.2119,-0.2118,-0.2116,-0.2115,-0.2115,-0.2114,-0.1403,-0.1449,-0.1606,-0.1855,-0.2036,-0.2173,-0.2295,-0.2384,-0.2411,-0.2462,-0.2183,-0.2319,-0.2329,-0.2456,-0.2456,-0.2457,-0.2457,-0.2458,-0.2458,-0.1295,-0.1454,-0.1619,-0.1887,-0.2021,-0.2191,-0.237,-0.2393,-0.2449,-0.2284,-0.2483,-0.2354,-0.2343,-0.2347,-0.2466,-0.2465,-0.2464,-0.2463,-0.2462,-0.1196,-0.1327,-0.1543,-0.1708,-0.2008,-0.2103,-0.2313,-0.2249,-0.2266,-0.2176,-0.218,-0.2192,-0.2115,-0.211,-0.2103,-0.2155,-0.2151,-0.2147,0,-0.1102,-0.1194,-0.1458,-0.1659,-0.1815,-0.2016,-0.1931,-0.1976,-0.2011,-0.1948,-0.2278,-0.2287,-0.229,-0.2206,-0.2194,-0.2185,0,0,0,-0.1052,-0.1157,-0.1265,-0.153,-0.1694,-0.1744,-0.1885,-0.1797,-0.2038,-0.189,-0.2045,-0.2072,-0.2279,-0.2491,-0.2402,-0.2388,-0.2389,0,0]},{"header":{"parameterUnit":"m.s-1","parameterCategory":2,"la1":30.2992,"la2":30.254,"lo1":-89.0895,"lo2":-89.0443,"dy":0.0025,"dx":0.0025,"nx":19,"ny":19,"refTime":"2026-05-20T09:00:00:Z","depth":"4","parameterNumber":3,"parameterNumberName":"V-component_of_CURRENTS"},"data":[0,0,0,-0.061,-0.061,-0.058,-0.058,-0.0465,-0.0464,0,0,0,0,0,0,0,0,0,0,0,-0.0619,-0.0619,-0.061,-0.061,-0.058,-0.058,-0.0465,-0.0464,0,0,0,0,0,0,0,0,0,0,0,-0.0618,-0.0619,-0.0619,-0.061,-0.058,-0.058,-0.0465,-0.0502,0,0,0,0,0,0,0,0,0,0,-0.0539,-0.0568,-0.0619,-0.0619,-0.061,-0.058,-0.058,-0.0505,-0.05,-0.0463,0,-0.0473,0,-0.0474,-0.0456,-0.0456,0,0,0,-0.059,-0.0572,-0.0565,-0.0619,-0.061,-0.0581,-0.0588,-0.0502,-0.0497,-0.0456,-0.0472,-0.0468,-0.0472,-0.0456,-0.0455,-0.0298,-0.0297,0,0,-0.0592,-0.0605,-0.0569,-0.0563,-0.062,-0.0589,-0.0587,-0.05,-0.0499,-0.0472,-0.0466,-0.047,-0.0455,-0.0454,-0.0298,-0.0297,0,0,0,-0.061,-0.0606,-0.0602,-0.0567,-0.0572,-0.0589,-0.0587,-0.0503,-0.0503,-0.0465,-0.0469,-0.0454,-0.0453,-0.0299,-0.0298,-0.0305,0,0,0,-0.061,-0.0618,-0.0604,-0.061,-0.0575,-0.0549,-0.0592,-0.0509,-0.0499,-0.0469,-0.0454,-0.0452,-0.03,-0.0299,-0.0307,-0.0336,0,0,0,-0.0617,-0.0619,-0.0622,-0.0611,-0.0608,-0.0551,-0.0545,-0.0507,-0.0502,-0.0456,-0.0452,-0.0301,-0.0299,-0.0309,-0.0338,-0.0288,0,0,0,-0.0621,-0.064,-0.0622,-0.063,-0.0608,-0.0577,-0.0545,-0.0522,-0.0488,-0.0454,-0.03,-0.0298,-0.031,-0.0339,-0.0289,-0.0352,0,0,0,-0.0648,-0.0644,-0.0644,-0.0627,-0.0608,-0.0579,-0.0521,-0.0475,-0.0433,-0.0323,-0.0319,-0.0307,-0.0338,-0.0288,-0.0228,0,0,0,0,-0.0653,-0.0656,-0.0645,-0.0629,-0.0597,-0.0541,-0.0495,-0.0436,-0.0336,-0.0407,-0.0262,-0.0281,-0.025,-0.0288,-0.0288,-0.0288,-0.0289,-0.0289,-0.0289,-0.0712,-0.0678,-0.067,-0.0622,-0.0589,-0.0507,-0.0439,-0.034,-0.0315,-0.0254,-0.0253,-0.0178,-0.0214,-0.0199,-0.0199,-0.0199,-0.0199,-0.0199,-0.0199,-0.0739,-0.0728,-0.0677,-0.0664,-0.0589,-0.0536,-0.0372,-0.0323,-0.0188,-0.0187,-0.0155,-0.0251,-0.0198,-0.0198,-0.0198,-0.0198,-0.0199,-0.0199,-0.0199,-0.0761,-0.0753,-0.0747,-0.0725,-0.0667,-0.0571,-0.0464,-0.0347,-0.0213,-0.0174,-0.0189,-0.0168,-0.0205,-0.0154,-0.0154,-0.0154,-0.0154,-0.0154,-0.0154,-0.0794,-0.0781,-0.0824,-0.0791,-0.0791,-0.0718,-0.0533,-0.0422,-0.028,-0.0206,-0.0184,-0.0162,-0.0164,-0.02,-0.0152,-0.0152,-0.0152,-0.0152,-0.0153,-0.0809,-0.0851,-0.0908,-0.0937,-0.092,-0.0844,-0.068,-0.0432,-0.0316,-0.0213,-0.0192,-0.0191,-0.0193,-0.0193,-0.0231,-0.019,-0.0191,-0.0192,0,-0.0855,-0.0867,-0.0992,-0.1049,-0.1031,-0.0913,-0.0728,-0.0556,-0.0363,-0.0378,-0.0344,-0.0333,-0.0327,-0.0345,-0.0345,-0.0399,0,0,0,-0.0886,-0.093,-0.1025,-0.1095,-0.1082,-0.0842,-0.067,-0.0586,-0.0403,-0.0268,-0.0208,-0.0203,-0.0225,-0.0146,-0.0145,-0.0147,-0.0205,0,0]}]]